Home > Weather > Temple > Past weeks

Flag for USA Past Weather in Temple, Texas, USA — Yesterday and Last 2 Weeks

Now
94 °F

Passing clouds.


Feels Like: 98 °F
Forecast: 73 / 91 °F
Wind: 10 mph from Southeast

Location: Fort Hood AAF Airport

Current Time: Jun 26, 2016 at 5:40:09 PM

Latest Report: Jun 26, 2016 at 4:58 PM


Visibility: 10 mi

Pressure: 30.00 "Hg

Humidity: 42%

Dew Point: 67 °F

Location of TempleLocation

Past Weather in Temple — Graph

°F

Temple Temperature Yesterday

Maximum temperature yesterday: 87 °F (at 12:58 PM)
Minimum temperature yesterday: 74 °F (at 5:58 AM)
Average temperature yesterday: 80 °F

High & Low Weather Summary for the Past Weeks

 TemperatureHumidityPressure
High96 °F (Jun 17, 3:58 PM)97% (Jun 26, 6:58 AM)30.19 "Hg (Jun 26, 6:58 AM)
Low72 °F (Jun 17, 6:58 AM)37% (Jun 17, 3:58 PM)29.76 "Hg (Jun 14, 7:58 PM)
Average83 °F69%29.96 "Hg
* Reported Jun 11 3:58 PM — Jun 26 3:58 PM, Temple, Weather by CustomWeather, © 2016

Note: Actual official high and low records may vary slightly from our data, if they occured in-between our weather recording intervals... More about our weather records

Advertising

Temple Weather History for the Previous 24 Hours

Scroll right to see more
 ConditionsComfort  
Time TempWeatherWind HumidityBarometerVisibility
3:58 PM
Sun, Jun 26
93 °FPartly sunny.10 mph42%30.03 "Hg10 mi
2:58 PM92 °FScattered clouds.12 mph47%30.04 "Hg10 mi
1:58 PM91 °FScattered clouds.10 mph51%30.05 "Hg10 mi
12:58 PM89 °FPassing clouds.9 mph56%30.07 "Hg10 mi
11:58 AM88 °FPassing clouds.9 mph56%30.09 "Hg10 mi
10:58 AM84 °FScattered clouds.9 mph62%30.10 "Hg10 mi
9:58 AM83 °FScattered clouds.8 mph69%30.09 "Hg10 mi
8:58 AM79 °FPartly sunny.5 mph86%30.09 "Hg9 mi
7:58 AM75 °FBroken clouds.5 mph94%30.08 "Hg8 mi
6:58 AM73 °FPassing clouds.3 mph97%30.07 "Hg7 mi
5:58 AM74 °FPassing clouds.6 mph96%30.07 "Hg9 mi
5:03 AM75 °FMostly cloudy.6 mph94%30.09 "Hg9 mi
4:58 AM75 °FOvercast.3 mph94%30.06 "Hg10 mi
3:58 AM75 °FMostly cloudy.5 mph93%30.05 "Hg10 mi
2:58 AM76 °FMostly cloudy.6 mph92%30.03 "Hg9 mi
1:58 AM76 °FMostly cloudy.7 mph93%30.03 "Hg10 mi
12:58 AM76 °FPartly cloudy.9 mph91%30.01 "Hg10 mi
11:58 PM
Sat, Jun 25
77 °FPartly cloudy.12 mph89%30.00 "Hg10 mi
10:58 PM78 °FPassing clouds.10 mph88%29.98 "Hg10 mi
9:58 PM78 °FPassing clouds.8 mph85%29.96 "Hg10 mi
8:58 PM79 °FScattered clouds.7 mph81%29.96 "Hg10 mi
7:58 PM80 °FOvercast.10 mph77%29.98 "Hg9 mi
6:58 PM82 °FSunny.12 mph71%29.98 "Hg9 mi
5:58 PM83 °FPartly sunny.12 mph67%29.97 "Hg10 mi
Weather by CustomWeather, © 2016

See weather overviewHow to use our weather pages